Вернуться в каталог

STARLINK-35862

АктивенСвязьVLEO
NORAD 66628·PAYLOAD·🇺🇸 United States

Запущен Nov 23, 2025 с Vandenberg Space Force Base

Loading…

Ближайшие Пролёты (ближайшие 24 часа)

TLE

СвежийSource: CelesTrak SupGP

Эпоха: Sep 15, 2026, 03:17 UTC

1 66628C 25271M   26258.13729167  .00063032  00000+0  18626-2 0  2580
2 66628  53.1594 335.1177 0001404  87.0931 153.6006 15.34352977    19

Отслеживайте STARLINK-35862 в реальном времени с AllMySat

Download on the App Store